Location: Roland
(31.1349°N, 85.4372°W)
Time: 23:54:01
(UTC+00:00)

S-56A Canister/Altair - Pass Details

Date: 26 April 2021
Orbit: 632 x 2501 km, 38.9° (Epoch: 11 May)

Event Time Altitude Azimuth Distance (km) Brightness Sun altitude
Rises 04:36:11 0° 271° (W) 5,145 12.0 -42.8°
Reaches altitude 10° 04:40:14 10° 277° (W) 3,842 11.3 -43.1°
Enters shadow 04:46:16 35° 300° (WNW) 1,996 9.7 -43.5°
